bmsdvc1.tbs
77.0000 TLOS

0.0000

UNSTAKED

77.0000 TLOS

STAKED

NET 0.0000 / CPU 0.0000

UNSTAKING

65.75 ms. / 0.01 hr.

CPU 70.00 TLOS

58.71 KB / 0.01 GB

BANDWIDTH 7.00 TLOS

3.43 KB / 117.96 KB

MEMORY USAGE 2.91 %
TOKENS
VOTES
Showing 1 to 200 entries
ACTIONS
DATE BLOCK TRX TYPE DATA
2019-06-24T19:51:46 33311767 ec857f... logstats { "device_id" : 1000, "temperature" : "0.00000000000000000", "humidity" : "0.00000000000000000", "vin" : "0.00000000000000000", "pressure" : "1021.53150000000005093", "lat" : "47.61430000000000007", "lon" : "-122.33849999999999625" }
2019-06-24T19:50:27 33311616 7a8c81... logstats { "device_id" : 1000, "temperature" : "0.00000000000000000", "humidity" : "0.00000000000000000", "vin" : "0.00000000000000000", "pressure" : "1021.49900000000002365", "lat" : "47.61430000000000007", "lon" : "-122.33849999999999625" }
2019-06-24T19:49:12 33311458 af5244... logstats { "device_id" : 1000, "temperature" : "0.00000000000000000", "humidity" : "0.00000000000000000", "vin" : "0.00000000000000000", "pressure" : "1021.52880000000004657", "lat" : "47.61430000000000007", "lon" : "-122.33849999999999625" }
2019-06-24T19:43:13 33310749 9f5d20... logstats { "device_id" : 1000, "temperature" : "0.00000000000000000", "humidity" : "0.00000000000000000", "vin" : "0.00000000000000000", "pressure" : "1021.57249999999999091", "lat" : "47.61430000000000007", "lon" : "-122.33849999999999625" }
2019-06-24T19:42:00 33310592 55f524... logstats { "device_id" : 1000, "temperature" : "0.00000000000000000", "humidity" : "0.00000000000000000", "vin" : "0.00000000000000000", "pressure" : "1021.58669999999995071", "lat" : "47.61430000000000007", "lon" : "-122.33849999999999625" }
2019-06-24T19:39:07 33310247 12df04... logstats { "device_id" : 1000, "temperature" : "0.00000000000000000", "humidity" : "0.00000000000000000", "vin" : "0.00000000000000000", "pressure" : "1021.59690000000000509", "lat" : "47.61430000000000007", "lon" : "-122.33849999999999625" }
2019-06-24T19:37:50 33310098 06cb13... logstats { "device_id" : 1000, "temperature" : "0.00000000000000000", "humidity" : "0.00000000000000000", "vin" : "0.00000000000000000", "pressure" : "1021.57910000000003947", "lat" : "47.61430000000000007", "lon" : "-122.33849999999999625" }
2019-06-24T19:36:35 33309945 f259e3... logstats { "device_id" : 1000, "temperature" : "0.00000000000000000", "humidity" : "0.00000000000000000", "vin" : "0.00000000000000000", "pressure" : "1021.60839999999996053", "lat" : "47.61430000000000007", "lon" : "-122.33849999999999625" }
2019-06-24T19:27:40 33308875 ad2257... logstats { "device_id" : 1000, "temperature" : "0.00000000000000000", "humidity" : "0.00000000000000000", "vin" : "1.56250000000000000", "pressure" : "1021.63499999999999091", "lat" : "47.61430000000000007", "lon" : "-122.33849999999999625" }
2019-06-24T19:24:56 33308546 b8e108... logstats { "device_id" : 1000, "temperature" : "0.00000000000000000", "humidity" : "0.00000000000000000", "vin" : "0.19530000000000000", "pressure" : "1021.66210000000000946", "lat" : "47.61430000000000007", "lon" : "-122.33849999999999625" }
2019-06-24T19:22:12 33308224 17ae11... logstats { "device_id" : 1000, "temperature" : "0.00000000000000000", "humidity" : "0.00000000000000000", "vin" : "0.00000000000000000", "pressure" : "1021.72709999999995034", "lat" : "47.61430000000000007", "lon" : "-122.33849999999999625" }
2019-06-24T19:19:33 33307900 13977e... logstats { "device_id" : 1000, "temperature" : "0.00000000000000000", "humidity" : "0.00000000000000000", "vin" : "0.00000000000000000", "pressure" : "1021.73879999999996926", "lat" : "47.61430000000000007", "lon" : "-122.33849999999999625" }
2019-06-24T19:15:17 33307388 4afe3c... logstats { "device_id" : 1000, "temperature" : "0.00000000000000000", "humidity" : "0.00000000000000000", "vin" : "0.00000000000000000", "pressure" : "1021.79809999999997672", "lat" : "47.61430000000000007", "lon" : "-122.33849999999999625" }
2019-06-24T19:10:59 33306881 655070... logstats { "device_id" : 1000, "temperature" : "0.00000000000000000", "humidity" : "0.00000000000000000", "vin" : "0.00000000000000000", "pressure" : "1021.76829999999995380", "lat" : "47.61430000000000007", "lon" : "-122.33849999999999625" }
2019-06-24T18:58:05 33305324 c82c5d... logstats { "device_id" : 1000, "temperature" : "0.00000000000000000", "humidity" : "0.00000000000000000", "vin" : "0.39060000000000000", "pressure" : "1022.01660000000003947", "lat" : "47.61430000000000007", "lon" : "-122.33849999999999625" }
2019-06-24T18:55:18 33304990 888dfa... logstats { "device_id" : 1000, "temperature" : "0.00000000000000000", "humidity" : "0.00000000000000000", "vin" : "0.58589999999999998", "pressure" : "1022.08199999999999363", "lat" : "47.61430000000000007", "lon" : "-122.33849999999999625" }
2019-06-24T18:51:14 33304501 532afd... logstats { "device_id" : 1000, "temperature" : "0.00000000000000000", "humidity" : "0.00000000000000000", "vin" : "0.00000000000000000", "pressure" : "1021.92819999999994707", "lat" : "47.61430000000000007", "lon" : "-122.33849999999999625" }
2019-06-24T18:45:19 33303791 c107f2... logstats { "device_id" : 1000, "temperature" : "0.00000000000000000", "humidity" : "0.00000000000000000", "vin" : "0.00000000000000000", "pressure" : "1021.99270000000001346", "lat" : "47.61430000000000007", "lon" : "-122.33849999999999625" }
2019-06-24T18:42:19 33303433 c8e505... logstats { "device_id" : 1000, "temperature" : "0.00000000000000000", "humidity" : "0.00000000000000000", "vin" : "0.00000000000000000", "pressure" : "1021.98969999999997071", "lat" : "47.61430000000000007", "lon" : "-122.33849999999999625" }
2019-06-24T18:41:04 33303284 f06b7f... logstats { "device_id" : 1000, "temperature" : "0.00000000000000000", "humidity" : "0.00000000000000000", "vin" : "0.00000000000000000", "pressure" : "1022.04049999999995180", "lat" : "47.61430000000000007", "lon" : "-122.33849999999999625" }
2019-06-24T18:39:49 33303132 c4ddac... logstats { "device_id" : 1000, "temperature" : "0.00000000000000000", "humidity" : "0.00000000000000000", "vin" : "0.00000000000000000", "pressure" : "1022.06960000000003674", "lat" : "47.61430000000000007", "lon" : "-122.33849999999999625" }
2019-06-24T18:37:02 33302804 5c0e1e... logstats { "device_id" : 1000, "temperature" : "0.00000000000000000", "humidity" : "0.00000000000000000", "vin" : "0.00000000000000000", "pressure" : "1022.06790000000000873", "lat" : "47.61430000000000007", "lon" : "-122.33849999999999625" }
2019-06-24T18:29:35 33301911 e00114... logstats { "device_id" : 1000, "temperature" : "0.00000000000000000", "humidity" : "0.00000000000000000", "vin" : "0.19530000000000000", "pressure" : "1022.33889999999996689", "lat" : "47.61430000000000007", "lon" : "-122.33849999999999625" }
2019-06-24T18:27:01 33301594 1b5b5b... logstats { "device_id" : 1000, "temperature" : "0.00000000000000000", "humidity" : "0.00000000000000000", "vin" : "0.00000000000000000", "pressure" : "1022.36789999999996326", "lat" : "47.61430000000000007", "lon" : "-122.33849999999999625" }
2019-06-24T18:25:43 33301446 36ae0d... logstats { "device_id" : 1000, "temperature" : "0.00000000000000000", "humidity" : "0.00000000000000000", "vin" : "0.00000000000000000", "pressure" : "1022.36279999999999291", "lat" : "47.61430000000000007", "lon" : "-122.33849999999999625" }
2019-06-24T18:24:29 33301290 eb8b8c... logstats { "device_id" : 1000, "temperature" : "0.00000000000000000", "humidity" : "0.00000000000000000", "vin" : "0.00000000000000000", "pressure" : "1022.42629999999996926", "lat" : "47.61430000000000007", "lon" : "-122.33849999999999625" }
2019-06-24T18:18:52 33300623 5c1f89... logstats { "device_id" : 1000, "temperature" : "0.00000000000000000", "humidity" : "0.00000000000000000", "vin" : "0.00000000000000000", "pressure" : "1022.22609999999997399", "lat" : "47.61430000000000007", "lon" : "-122.33849999999999625" }
2019-06-24T18:17:38 33300471 899100... logstats { "device_id" : 1000, "temperature" : "0.00000000000000000", "humidity" : "0.00000000000000000", "vin" : "0.00000000000000000", "pressure" : "1022.22490000000004784", "lat" : "47.61430000000000007", "lon" : "-122.33849999999999625" }
2019-06-24T18:16:24 33300321 b16df1... logstats { "device_id" : 1000, "temperature" : "0.00000000000000000", "humidity" : "0.00000000000000000", "vin" : "0.00000000000000000", "pressure" : "1022.26930000000004384", "lat" : "47.61430000000000007", "lon" : "-122.33849999999999625" }
2019-06-24T18:13:45 33300013 10039b... logstats { "device_id" : 1000, "temperature" : "0.00000000000000000", "humidity" : "0.00000000000000000", "vin" : "0.00000000000000000", "pressure" : "1022.27859999999998308", "lat" : "47.61430000000000007", "lon" : "-122.33849999999999625" }
2019-06-24T18:01:04 33298483 8a591f... logstats { "device_id" : 1000, "temperature" : "0.00000000000000000", "humidity" : "0.00000000000000000", "vin" : "0.00000000000000000", "pressure" : "1022.56709999999998217", "lat" : "47.61430000000000007", "lon" : "-122.33849999999999625" }
2019-06-24T17:52:20 33297440 59c68c... logstats { "device_id" : 1000, "temperature" : "0.00000000000000000", "humidity" : "0.00000000000000000", "vin" : "0.00000000000000000", "pressure" : "1022.62009999999997945", "lat" : "47.61430000000000007", "lon" : "-122.33849999999999625" }
2019-06-24T17:49:35 33297113 58dea7... logstats { "device_id" : 1000, "temperature" : "0.00000000000000000", "humidity" : "0.00000000000000000", "vin" : "0.00000000000000000", "pressure" : "1022.62699999999995271", "lat" : "47.61430000000000007", "lon" : "-122.33849999999999625" }
2019-06-24T17:48:20 33296955 17e346... logstats { "device_id" : 1000, "temperature" : "0.00000000000000000", "humidity" : "0.00000000000000000", "vin" : "0.00000000000000000", "pressure" : "1022.58590000000003783", "lat" : "47.61430000000000007", "lon" : "-122.33849999999999625" }
2019-06-24T17:42:53 33296301 0e6b5f... logstats { "device_id" : 1000, "temperature" : "0.00000000000000000", "humidity" : "0.00000000000000000", "vin" : "0.00000000000000000", "pressure" : "1022.38260000000002492", "lat" : "47.61430000000000007", "lon" : "-122.33849999999999625" }
2019-06-24T17:41:37 33296150 1a08af... logstats { "device_id" : 1000, "temperature" : "0.00000000000000000", "humidity" : "0.00000000000000000", "vin" : "0.00000000000000000", "pressure" : "1022.40599999999994907", "lat" : "47.61430000000000007", "lon" : "-122.33849999999999625" }
2019-06-24T17:38:50 33295824 fa6ec1... logstats { "device_id" : 1000, "temperature" : "0.00000000000000000", "humidity" : "0.00000000000000000", "vin" : "0.00000000000000000", "pressure" : "1022.44169999999996890", "lat" : "47.61430000000000007", "lon" : "-122.33849999999999625" }
2019-06-24T17:37:32 33295666 83d3e0... logstats { "device_id" : 1000, "temperature" : "0.00000000000000000", "humidity" : "0.00000000000000000", "vin" : "0.00000000000000000", "pressure" : "1022.37890000000004420", "lat" : "47.61430000000000007", "lon" : "-122.33849999999999625" }
2019-06-24T17:33:14 33295146 b34459... logstats { "device_id" : 1000, "temperature" : "0.00000000000000000", "humidity" : "0.00000000000000000", "vin" : "0.00000000000000000", "pressure" : "1022.59329999999999927", "lat" : "47.61430000000000007", "lon" : "-122.33849999999999625" }
2019-06-24T17:30:27 33294817 95d7b3... logstats { "device_id" : 1000, "temperature" : "0.00000000000000000", "humidity" : "0.00000000000000000", "vin" : "0.00000000000000000", "pressure" : "1022.64649999999994634", "lat" : "47.61430000000000007", "lon" : "-122.33849999999999625" }
2019-06-24T17:29:16 33294665 dee5da... logstats { "device_id" : 1000, "temperature" : "0.00000000000000000", "humidity" : "0.00000000000000000", "vin" : "0.00000000000000000", "pressure" : "1022.66160000000002128", "lat" : "47.61430000000000007", "lon" : "-122.33849999999999625" }
2019-06-24T17:26:32 33294347 e34ef6... logstats { "device_id" : 1000, "temperature" : "0.00000000000000000", "humidity" : "0.00000000000000000", "vin" : "0.00000000000000000", "pressure" : "1022.51589999999998781", "lat" : "47.61430000000000007", "lon" : "-122.33849999999999625" }
2019-06-24T17:20:54 33293670 17ed47... logstats { "device_id" : 1000, "temperature" : "0.00000000000000000", "humidity" : "0.00000000000000000", "vin" : "0.00000000000000000", "pressure" : "1022.55830000000003110", "lat" : "47.61430000000000007", "lon" : "-122.33849999999999625" }
2019-06-24T17:18:13 33293342 2781ec... logstats { "device_id" : 1000, "temperature" : "0.00000000000000000", "humidity" : "0.00000000000000000", "vin" : "0.00000000000000000", "pressure" : "1022.46090000000003783", "lat" : "47.61430000000000007", "lon" : "-122.33849999999999625" }
2019-06-24T17:15:22 33293002 7b2924... logstats { "device_id" : 1000, "temperature" : "0.00000000000000000", "humidity" : "0.00000000000000000", "vin" : "0.00000000000000000", "pressure" : "1022.49680000000000746", "lat" : "47.61430000000000007", "lon" : "-122.33849999999999625" }
2019-06-24T17:12:42 33292684 12c211... logstats { "device_id" : 1000, "temperature" : "0.00000000000000000", "humidity" : "0.00000000000000000", "vin" : "0.00000000000000000", "pressure" : "1022.52610000000004220", "lat" : "47.61430000000000007", "lon" : "-122.33849999999999625" }
2019-06-24T17:11:27 33292531 a77478... logstats { "device_id" : 1000, "temperature" : "0.00000000000000000", "humidity" : "0.00000000000000000", "vin" : "0.00000000000000000", "pressure" : "1022.50440000000003238", "lat" : "47.61430000000000007", "lon" : "-122.33849999999999625" }
2019-06-24T17:10:10 33292381 edbad6... logstats { "device_id" : 1000, "temperature" : "0.00000000000000000", "humidity" : "0.00000000000000000", "vin" : "0.00000000000000000", "pressure" : "1022.51490000000001146", "lat" : "47.61430000000000007", "lon" : "-122.33849999999999625" }
2019-06-24T17:08:55 33292231 e04992... logstats { "device_id" : 1000, "temperature" : "0.00000000000000000", "humidity" : "0.00000000000000000", "vin" : "0.00000000000000000", "pressure" : "1022.52560000000005402", "lat" : "47.61430000000000007", "lon" : "-122.33849999999999625" }
2019-06-24T17:06:12 33291907 37a21d... logstats { "device_id" : 1000, "temperature" : "0.00000000000000000", "humidity" : "0.00000000000000000", "vin" : "0.00000000000000000", "pressure" : "1022.53030000000001110", "lat" : "47.61430000000000007", "lon" : "-122.33849999999999625" }
2019-06-24T17:00:42 33291241 edc265... logstats { "device_id" : 1000, "temperature" : "0.00000000000000000", "humidity" : "0.00000000000000000", "vin" : "0.00000000000000000", "pressure" : "1022.79639999999994870", "lat" : "47.61430000000000007", "lon" : "-122.33849999999999625" }
2019-06-24T16:58:04 33290924 15f07b... logstats { "device_id" : 1000, "temperature" : "0.00000000000000000", "humidity" : "0.00000000000000000", "vin" : "0.00000000000000000", "pressure" : "1022.67700000000002092", "lat" : "47.61430000000000007", "lon" : "-122.33849999999999625" }
2019-06-24T16:55:16 33290591 cf9620... logstats { "device_id" : 1000, "temperature" : "0.00000000000000000", "humidity" : "0.00000000000000000", "vin" : "0.00000000000000000", "pressure" : "1022.71289999999999054", "lat" : "47.61430000000000007", "lon" : "-122.33849999999999625" }
2019-06-24T16:46:55 33289586 81e4e4... logstats { "device_id" : 1000, "temperature" : "0.00000000000000000", "humidity" : "0.00000000000000000", "vin" : "1.36719999999999997", "pressure" : "1022.71900000000005093", "lat" : "47.61430000000000007", "lon" : "-122.33849999999999625" }
2019-06-24T16:45:37 33289439 973b8f... logstats { "device_id" : 1000, "temperature" : "0.00000000000000000", "humidity" : "0.00000000000000000", "vin" : "0.97660000000000002", "pressure" : "1022.83130000000005566", "lat" : "47.61430000000000007", "lon" : "-122.33849999999999625" }
2019-06-24T16:42:51 33289099 42c929... logstats { "device_id" : 1000, "temperature" : "0.00000000000000000", "humidity" : "0.00000000000000000", "vin" : "0.97660000000000002", "pressure" : "1022.80200000000002092", "lat" : "47.61430000000000007", "lon" : "-122.33849999999999625" }
2019-06-24T16:40:05 33288766 a11981... logstats { "device_id" : 1000, "temperature" : "0.00000000000000000", "humidity" : "0.00000000000000000", "vin" : "0.58589999999999998", "pressure" : "1022.87040000000001783", "lat" : "47.61430000000000007", "lon" : "-122.33849999999999625" }
2019-06-24T16:37:26 33288448 c1f8dc... logstats { "device_id" : 1000, "temperature" : "0.00000000000000000", "humidity" : "0.00000000000000000", "vin" : "0.39060000000000000", "pressure" : "1022.91459999999995034", "lat" : "47.61430000000000007", "lon" : "-122.33849999999999625" }
2019-06-24T16:28:43 33287407 c1d6a3... logstats { "device_id" : 1000, "temperature" : "0.00000000000000000", "humidity" : "0.00000000000000000", "vin" : "0.00000000000000000", "pressure" : "1022.90089999999997872", "lat" : "47.61430000000000007", "lon" : "-122.33849999999999625" }
2019-06-24T16:24:35 33286910 d4dc65... logstats { "device_id" : 1000, "temperature" : "0.00000000000000000", "humidity" : "0.00000000000000000", "vin" : "0.00000000000000000", "pressure" : "1022.98019999999996799", "lat" : "47.61430000000000007", "lon" : "-122.33849999999999625" }
2019-06-24T16:21:44 33286570 33f69b... logstats { "device_id" : 1000, "temperature" : "0.00000000000000000", "humidity" : "0.00000000000000000", "vin" : "0.00000000000000000", "pressure" : "1022.85739999999998417", "lat" : "47.61430000000000007", "lon" : "-122.33849999999999625" }
2019-06-24T16:20:25 33286413 cf4dce... logstats { "device_id" : 1000, "temperature" : "0.00000000000000000", "humidity" : "0.00000000000000000", "vin" : "0.00000000000000000", "pressure" : "1022.83810000000005402", "lat" : "47.61430000000000007", "lon" : "-122.33849999999999625" }
2019-06-24T16:14:33 33285708 7bd339... logstats { "device_id" : 1000, "temperature" : "0.00000000000000000", "humidity" : "0.00000000000000000", "vin" : "1.95320000000000005", "pressure" : "1022.96040000000004966", "lat" : "47.61430000000000007", "lon" : "-122.33849999999999625" }
2019-06-24T16:07:33 33284869 ea3674... logstats { "device_id" : 1000, "temperature" : "0.00000000000000000", "humidity" : "0.00000000000000000", "vin" : "0.58589999999999998", "pressure" : "1022.88699999999994361", "lat" : "47.61430000000000007", "lon" : "-122.33849999999999625" }
2019-06-24T16:03:20 33284358 b50075... logstats { "device_id" : 1000, "temperature" : "0.00000000000000000", "humidity" : "0.00000000000000000", "vin" : "0.19530000000000000", "pressure" : "1022.90800000000001546", "lat" : "47.61430000000000007", "lon" : "-122.33849999999999625" }
2019-06-24T16:02:06 33284207 b7d1dd... logstats { "device_id" : 1000, "temperature" : "0.00000000000000000", "humidity" : "0.00000000000000000", "vin" : "0.00000000000000000", "pressure" : "1022.88769999999999527", "lat" : "47.61430000000000007", "lon" : "-122.33849999999999625" }
2019-06-24T16:00:53 33284063 a5c588... logstats { "device_id" : 1000, "temperature" : "0.00000000000000000", "humidity" : "0.00000000000000000", "vin" : "0.00000000000000000", "pressure" : "1022.84889999999995780", "lat" : "47.61430000000000007", "lon" : "-122.33849999999999625" }
2019-06-24T15:59:41 33283917 c1385f... logstats { "device_id" : 1000, "temperature" : "0.00000000000000000", "humidity" : "0.00000000000000000", "vin" : "0.00000000000000000", "pressure" : "1022.85109999999997399", "lat" : "47.61430000000000007", "lon" : "-122.33849999999999625" }
2019-06-24T15:57:01 33283596 731d90... logstats { "device_id" : 1000, "temperature" : "0.00000000000000000", "humidity" : "0.00000000000000000", "vin" : "0.00000000000000000", "pressure" : "1022.67750000000000909", "lat" : "47.61430000000000007", "lon" : "-122.33849999999999625" }
2019-06-24T15:55:47 33283449 4904f7... logstats { "device_id" : 1000, "temperature" : "0.00000000000000000", "humidity" : "0.00000000000000000", "vin" : "0.00000000000000000", "pressure" : "1022.68020000000001346", "lat" : "47.61430000000000007", "lon" : "-122.33849999999999625" }
2019-06-24T15:53:08 33283142 4ff717... logstats { "device_id" : 1000, "temperature" : "0.00000000000000000", "humidity" : "0.00000000000000000", "vin" : "0.00000000000000000", "pressure" : "1022.65840000000002874", "lat" : "47.61430000000000007", "lon" : "-122.33849999999999625" }
2019-06-24T15:51:52 33282984 e3d32e... logstats { "device_id" : 1000, "temperature" : "0.00000000000000000", "humidity" : "0.00000000000000000", "vin" : "0.00000000000000000", "pressure" : "1022.65039999999999054", "lat" : "47.61430000000000007", "lon" : "-122.33849999999999625" }
2019-06-24T15:46:14 33282304 e93b40... logstats { "device_id" : 1000, "temperature" : "0.00000000000000000", "humidity" : "0.00000000000000000", "vin" : "0.58589999999999998", "pressure" : "1022.81399999999996453", "lat" : "47.61430000000000007", "lon" : "-122.33849999999999625" }
2019-06-24T15:45:03 33282161 dba137... logstats { "device_id" : 1000, "temperature" : "0.00000000000000000", "humidity" : "0.00000000000000000", "vin" : "0.97660000000000002", "pressure" : "1022.80470000000002528", "lat" : "47.61430000000000007", "lon" : "-122.33849999999999625" }
2019-06-24T15:43:49 33282014 4b1921... logstats { "device_id" : 1000, "temperature" : "0.00000000000000000", "humidity" : "0.00000000000000000", "vin" : "0.58589999999999998", "pressure" : "1022.81809999999995853", "lat" : "47.61430000000000007", "lon" : "-122.33849999999999625" }
2019-06-24T15:42:33 33281867 93f1d2... logstats { "device_id" : 1000, "temperature" : "0.00000000000000000", "humidity" : "0.00000000000000000", "vin" : "1.56250000000000000", "pressure" : "1022.80830000000003110", "lat" : "47.61430000000000007", "lon" : "-122.33849999999999625" }
2019-06-24T15:41:16 33281714 bfe0f8... logstats { "device_id" : 1000, "temperature" : "0.00000000000000000", "humidity" : "0.00000000000000000", "vin" : "2.73439999999999994", "pressure" : "1022.79319999999995616", "lat" : "47.61430000000000007", "lon" : "-122.33849999999999625" }
2019-06-24T15:40:02 33281559 5ec38a... logstats { "device_id" : 1000, "temperature" : "0.00000000000000000", "humidity" : "0.00000000000000000", "vin" : "1.75780000000000003", "pressure" : "1022.81809999999995853", "lat" : "47.61430000000000007", "lon" : "-122.33849999999999625" }
2019-06-24T15:38:48 33281412 cc0b5d... logstats { "device_id" : 1000, "temperature" : "0.00000000000000000", "humidity" : "0.00000000000000000", "vin" : "0.78129999999999999", "pressure" : "1022.76949999999999363", "lat" : "47.61430000000000007", "lon" : "-122.33849999999999625" }
2019-06-24T15:33:20 33280756 23ccb6... logstats { "device_id" : 1000, "temperature" : "0.00000000000000000", "humidity" : "0.00000000000000000", "vin" : "0.39060000000000000", "pressure" : "1022.81299999999998818", "lat" : "47.61430000000000007", "lon" : "-122.33849999999999625" }
2019-06-24T15:30:39 33280436 d4ef51... logstats { "device_id" : 1000, "temperature" : "0.00000000000000000", "humidity" : "0.00000000000000000", "vin" : "0.19530000000000000", "pressure" : "1022.79349999999999454", "lat" : "47.61430000000000007", "lon" : "-122.33849999999999625" }
2019-06-24T15:29:21 33280291 7c73ad... logstats { "device_id" : 1000, "temperature" : "0.00000000000000000", "humidity" : "0.00000000000000000", "vin" : "0.00000000000000000", "pressure" : "1022.79250000000001819", "lat" : "47.61430000000000007", "lon" : "-122.33849999999999625" }
2019-06-24T15:24:55 33279754 97bd58... logstats { "device_id" : 1000, "temperature" : "0.00000000000000000", "humidity" : "0.00000000000000000", "vin" : "0.00000000000000000", "pressure" : "1022.63379999999995107", "lat" : "47.61430000000000007", "lon" : "-122.33849999999999625" }
2019-06-24T15:22:09 33279422 156dea... logstats { "device_id" : 1000, "temperature" : "0.00000000000000000", "humidity" : "0.00000000000000000", "vin" : "0.00000000000000000", "pressure" : "1022.81320000000005166", "lat" : "47.61430000000000007", "lon" : "-122.33849999999999625" }
2019-06-24T15:18:08 33278936 15d829... logstats { "device_id" : 1000, "temperature" : "0.00000000000000000", "humidity" : "0.00000000000000000", "vin" : "0.58589999999999998", "pressure" : "1022.81759999999997035", "lat" : "47.61430000000000007", "lon" : "-122.33849999999999625" }
2019-06-24T15:08:26 33277770 192c4c... logstats { "device_id" : 1000, "temperature" : "0.00000000000000000", "humidity" : "0.00000000000000000", "vin" : "0.00000000000000000", "pressure" : "1022.76559999999994943", "lat" : "47.61430000000000007", "lon" : "-122.33849999999999625" }
2019-06-24T15:07:11 33277625 e0fd53... logstats { "device_id" : 1000, "temperature" : "0.00000000000000000", "humidity" : "0.00000000000000000", "vin" : "0.00000000000000000", "pressure" : "1022.75440000000003238", "lat" : "47.61430000000000007", "lon" : "-122.33849999999999625" }
2019-06-24T14:58:34 33276594 2c8865... logstats { "device_id" : 1000, "temperature" : "0.00000000000000000", "humidity" : "0.00000000000000000", "vin" : "0.00000000000000000", "pressure" : "1022.58450000000004820", "lat" : "47.61430000000000007", "lon" : "-122.33849999999999625" }
2019-06-24T14:56:02 33276284 a4e21d... logstats { "device_id" : 1000, "temperature" : "0.00000000000000000", "humidity" : "0.00000000000000000", "vin" : "0.00000000000000000", "pressure" : "1022.57280000000002929", "lat" : "47.61430000000000007", "lon" : "-122.33849999999999625" }
2019-06-24T14:51:41 33275770 297301... logstats { "device_id" : 1000, "temperature" : "0.00000000000000000", "humidity" : "0.00000000000000000", "vin" : "0.00000000000000000", "pressure" : "1022.57539999999994507", "lat" : "47.61430000000000007", "lon" : "-122.33849999999999625" }
2019-06-24T14:50:29 33275617 f27ffc... logstats { "device_id" : 1000, "temperature" : "0.00000000000000000", "humidity" : "0.00000000000000000", "vin" : "0.00000000000000000", "pressure" : "1022.58590000000003783", "lat" : "47.61430000000000007", "lon" : "-122.33849999999999625" }
2019-06-24T14:43:16 33274760 7aa9ac... logstats { "device_id" : 1000, "temperature" : "0.00000000000000000", "humidity" : "0.00000000000000000", "vin" : "0.78129999999999999", "pressure" : "1022.70650000000000546", "lat" : "47.61430000000000007", "lon" : "-122.33849999999999625" }
2019-06-24T14:39:12 33274272 e6c71d... logstats { "device_id" : 1000, "temperature" : "0.00000000000000000", "humidity" : "0.00000000000000000", "vin" : "1.17189999999999994", "pressure" : "1022.67460000000005493", "lat" : "47.61430000000000007", "lon" : "-122.33849999999999625" }
2019-06-24T14:29:25 33273092 c6b19e... logstats { "device_id" : 1000, "temperature" : "0.00000000000000000", "humidity" : "0.00000000000000000", "vin" : "0.00000000000000000", "pressure" : "1022.68820000000005166", "lat" : "47.61430000000000007", "lon" : "-122.33849999999999625" }
2019-06-24T14:25:21 33272611 35ed8d... logstats { "device_id" : 1000, "temperature" : "0.00000000000000000", "humidity" : "0.00000000000000000", "vin" : "0.00000000000000000", "pressure" : "1022.53539999999998145", "lat" : "47.61430000000000007", "lon" : "-122.33849999999999625" }
2019-06-24T14:24:05 33272458 a764d4... logstats { "device_id" : 1000, "temperature" : "0.00000000000000000", "humidity" : "0.00000000000000000", "vin" : "0.00000000000000000", "pressure" : "1022.54660000000001219", "lat" : "47.61430000000000007", "lon" : "-122.33849999999999625" }
2019-06-24T14:22:47 33272304 750500... logstats { "device_id" : 1000, "temperature" : "0.00000000000000000", "humidity" : "0.00000000000000000", "vin" : "0.00000000000000000", "pressure" : "1022.52829999999994470", "lat" : "47.61430000000000007", "lon" : "-122.33849999999999625" }
2019-06-24T14:18:31 33271793 223abf... logstats { "device_id" : 1000, "temperature" : "0.00000000000000000", "humidity" : "0.00000000000000000", "vin" : "0.00000000000000000", "pressure" : "1022.53420000000005530", "lat" : "47.61430000000000007", "lon" : "-122.33849999999999625" }
2019-06-24T14:15:52 33271469 c5c28b... logstats { "device_id" : 1000, "temperature" : "0.00000000000000000", "humidity" : "0.00000000000000000", "vin" : "0.39060000000000000", "pressure" : "1022.69359999999994670", "lat" : "47.61430000000000007", "lon" : "-122.33849999999999625" }
2019-06-24T14:10:24 33270812 a82d36... logstats { "device_id" : 1000, "temperature" : "0.00000000000000000", "humidity" : "0.00000000000000000", "vin" : "0.39060000000000000", "pressure" : "1022.74270000000001346", "lat" : "47.61430000000000007", "lon" : "-122.33849999999999625" }
2019-06-24T14:09:10 33270664 3ac4ab... logstats { "device_id" : 1000, "temperature" : "0.00000000000000000", "humidity" : "0.00000000000000000", "vin" : "0.78129999999999999", "pressure" : "1022.76829999999995380", "lat" : "47.61430000000000007", "lon" : "-122.33849999999999625" }
2019-06-24T14:06:43 33270368 ea06b2... logstats { "device_id" : 1000, "temperature" : "0.00000000000000000", "humidity" : "0.00000000000000000", "vin" : "0.39060000000000000", "pressure" : "1022.79129999999997835", "lat" : "47.61430000000000007", "lon" : "-122.33849999999999625" }
2019-06-24T14:02:35 33269872 ece676... logstats { "device_id" : 1000, "temperature" : "0.00000000000000000", "humidity" : "0.00000000000000000", "vin" : "0.78129999999999999", "pressure" : "1022.82420000000001892", "lat" : "47.61430000000000007", "lon" : "-122.33849999999999625" }
2019-06-24T13:59:58 33269568 ae9a05... logstats { "device_id" : 1000, "temperature" : "0.00000000000000000", "humidity" : "0.00000000000000000", "vin" : "0.00000000000000000", "pressure" : "1022.82709999999997308", "lat" : "47.61430000000000007", "lon" : "-122.33849999999999625" }
2019-06-24T13:55:47 33269091 7b1650... logstats { "device_id" : 1000, "temperature" : "0.00000000000000000", "humidity" : "0.00000000000000000", "vin" : "0.00000000000000000", "pressure" : "1022.64970000000005257", "lat" : "47.61430000000000007", "lon" : "-122.33849999999999625" }
2019-06-24T13:53:08 33268786 69102f... logstats { "device_id" : 1000, "temperature" : "0.00000000000000000", "humidity" : "0.00000000000000000", "vin" : "0.00000000000000000", "pressure" : "1022.65769999999997708", "lat" : "47.61430000000000007", "lon" : "-122.33849999999999625" }
2019-06-24T13:51:50 33268649 a1c8fd... logstats { "device_id" : 1000, "temperature" : "0.00000000000000000", "humidity" : "0.00000000000000000", "vin" : "0.00000000000000000", "pressure" : "1022.61180000000001655", "lat" : "47.61430000000000007", "lon" : "-122.33849999999999625" }
2019-06-24T13:49:13 33268344 1076b4... logstats { "device_id" : 1000, "temperature" : "0.00000000000000000", "humidity" : "0.00000000000000000", "vin" : "0.00000000000000000", "pressure" : "1022.63229999999998654", "lat" : "47.61430000000000007", "lon" : "-122.33849999999999625" }
2019-06-24T13:37:32 33267008 0a519f... logstats { "device_id" : 1000, "temperature" : "0.00000000000000000", "humidity" : "0.00000000000000000", "vin" : "0.39060000000000000", "pressure" : "1022.77610000000004220", "lat" : "47.61430000000000007", "lon" : "-122.33849999999999625" }
2019-06-24T13:34:43 33266665 3d2ce2... logstats { "device_id" : 1000, "temperature" : "0.00000000000000000", "humidity" : "0.00000000000000000", "vin" : "0.58589999999999998", "pressure" : "1022.75609999999994670", "lat" : "47.61430000000000007", "lon" : "-122.33849999999999625" }
2019-06-24T13:31:53 33266328 f1cd06... logstats { "device_id" : 1000, "temperature" : "0.00000000000000000", "humidity" : "0.00000000000000000", "vin" : "0.00000000000000000", "pressure" : "1022.78340000000002874", "lat" : "47.61430000000000007", "lon" : "-122.33849999999999625" }
2019-06-24T13:30:36 33266172 d78a28... logstats { "device_id" : 1000, "temperature" : "0.00000000000000000", "humidity" : "0.00000000000000000", "vin" : "0.00000000000000000", "pressure" : "1022.75019999999994980", "lat" : "47.61430000000000007", "lon" : "-122.33849999999999625" }
2019-06-24T13:29:21 33266018 39a9b2... logstats { "device_id" : 1000, "temperature" : "0.00000000000000000", "humidity" : "0.00000000000000000", "vin" : "0.00000000000000000", "pressure" : "1022.76900000000000546", "lat" : "47.61430000000000007", "lon" : "-122.33849999999999625" }
2019-06-24T13:28:06 33265871 f1a950... logstats { "device_id" : 1000, "temperature" : "0.00000000000000000", "humidity" : "0.00000000000000000", "vin" : "0.00000000000000000", "pressure" : "1022.76779999999996562", "lat" : "47.61430000000000007", "lon" : "-122.33849999999999625" }
2019-06-24T13:25:25 33265546 3479fb... logstats { "device_id" : 1000, "temperature" : "0.00000000000000000", "humidity" : "0.00000000000000000", "vin" : "0.00000000000000000", "pressure" : "1022.64359999999999218", "lat" : "47.61430000000000007", "lon" : "-122.33849999999999625" }
2019-06-24T13:24:12 33265397 755f49... logstats { "device_id" : 1000, "temperature" : "0.00000000000000000", "humidity" : "0.00000000000000000", "vin" : "0.00000000000000000", "pressure" : "1022.66939999999999600", "lat" : "47.61430000000000007", "lon" : "-122.33849999999999625" }
2019-06-24T13:18:24 33264710 eefae0... logstats { "device_id" : 1000, "temperature" : "0.00000000000000000", "humidity" : "0.00000000000000000", "vin" : "0.19530000000000000", "pressure" : "1022.69799999999997908", "lat" : "47.61430000000000007", "lon" : "-122.33849999999999625" }
2019-06-24T13:15:45 33264386 763a76... logstats { "device_id" : 1000, "temperature" : "0.00000000000000000", "humidity" : "0.00000000000000000", "vin" : "2.53909999999999991", "pressure" : "1022.85029999999994743", "lat" : "47.61430000000000007", "lon" : "-122.33849999999999625" }
2019-06-24T13:14:30 33264238 2d4bc4... logstats { "device_id" : 1000, "temperature" : "0.00000000000000000", "humidity" : "0.00000000000000000", "vin" : "7.03139999999999965", "pressure" : "1022.78639999999995780", "lat" : "47.61430000000000007", "lon" : "-122.33849999999999625" }
2019-06-24T13:11:41 33263907 a3f4f6... logstats { "device_id" : 1000, "temperature" : "0.00000000000000000", "humidity" : "0.00000000000000000", "vin" : "4.49230000000000018", "pressure" : "1022.67460000000005493", "lat" : "47.61430000000000007", "lon" : "-122.33849999999999625" }
2019-06-24T13:07:43 33263422 c667b2... logstats { "device_id" : 1000, "temperature" : "0.00000000000000000", "humidity" : "0.00000000000000000", "vin" : "2.34379999999999988", "pressure" : "1022.78470000000004347", "lat" : "47.61430000000000007", "lon" : "-122.33849999999999625" }
2019-06-24T13:06:25 33263274 3d8784... logstats { "device_id" : 1000, "temperature" : "0.00000000000000000", "humidity" : "0.00000000000000000", "vin" : "1.95320000000000005", "pressure" : "1022.84059999999999491", "lat" : "47.61430000000000007", "lon" : "-122.33849999999999625" }
2019-06-24T13:05:10 33263116 737ad3... logstats { "device_id" : 1000, "temperature" : "0.00000000000000000", "humidity" : "0.00000000000000000", "vin" : "1.95320000000000005", "pressure" : "1022.79960000000005493", "lat" : "47.61430000000000007", "lon" : "-122.33849999999999625" }
2019-06-24T13:03:56 33262966 0563a9... logstats { "device_id" : 1000, "temperature" : "0.00000000000000000", "humidity" : "0.00000000000000000", "vin" : "1.56250000000000000", "pressure" : "1022.77200000000004820", "lat" : "47.61430000000000007", "lon" : "-122.33849999999999625" }
2019-06-24T13:02:42 33262818 3ec9a4... logstats { "device_id" : 1000, "temperature" : "0.00000000000000000", "humidity" : "0.00000000000000000", "vin" : "0.00000000000000000", "pressure" : "1022.79960000000005493", "lat" : "47.61430000000000007", "lon" : "-122.33849999999999625" }
2019-06-24T13:00:01 33262496 34188e... logstats { "device_id" : 1000, "temperature" : "0.00000000000000000", "humidity" : "0.00000000000000000", "vin" : "0.00000000000000000", "pressure" : "1022.81420000000002801", "lat" : "47.61430000000000007", "lon" : "-122.33849999999999625" }
2019-06-24T12:55:45 33261986 8573e7... logstats { "device_id" : 1000, "temperature" : "0.00000000000000000", "humidity" : "0.00000000000000000", "vin" : "0.00000000000000000", "pressure" : "1022.71849999999994907", "lat" : "47.61430000000000007", "lon" : "-122.33849999999999625" }
2019-06-24T12:54:33 33261838 af157f... logstats { "device_id" : 1000, "temperature" : "0.00000000000000000", "humidity" : "0.00000000000000000", "vin" : "0.00000000000000000", "pressure" : "1022.72709999999995034", "lat" : "47.61430000000000007", "lon" : "-122.33849999999999625" }
2019-06-24T12:48:56 33261172 98d736... logstats { "device_id" : 1000, "temperature" : "0.00000000000000000", "humidity" : "0.00000000000000000", "vin" : "0.00000000000000000", "pressure" : "1022.70259999999996126", "lat" : "47.61430000000000007", "lon" : "-122.33849999999999625" }
2019-06-24T12:47:42 33261019 ba212e... logstats { "device_id" : 1000, "temperature" : "0.00000000000000000", "humidity" : "0.00000000000000000", "vin" : "0.00000000000000000", "pressure" : "1022.71699999999998454", "lat" : "47.61430000000000007", "lon" : "-122.33849999999999625" }
2019-06-24T12:43:33 33260527 d34443... logstats { "device_id" : 1000, "temperature" : "0.00000000000000000", "humidity" : "0.00000000000000000", "vin" : "0.00000000000000000", "pressure" : "1022.63210000000003674", "lat" : "47.61430000000000007", "lon" : "-122.33849999999999625" }
2019-06-24T12:42:18 33260372 c8d021... logstats { "device_id" : 1000, "temperature" : "0.00000000000000000", "humidity" : "0.00000000000000000", "vin" : "0.19530000000000000", "pressure" : "1022.73509999999998854", "lat" : "47.61430000000000007", "lon" : "-122.33849999999999625" }
2019-06-24T12:26:33 33258481 1c6df5... logstats { "device_id" : 1000, "temperature" : "0.00000000000000000", "humidity" : "0.00000000000000000", "vin" : "0.00000000000000000", "pressure" : "1022.75559999999995853", "lat" : "47.61430000000000007", "lon" : "-122.33849999999999625" }
2019-06-24T12:25:13 33258331 eec6c4... logstats { "device_id" : 1000, "temperature" : "0.00000000000000000", "humidity" : "0.00000000000000000", "vin" : "0.78129999999999999", "pressure" : "1022.80909999999994398", "lat" : "47.61430000000000007", "lon" : "-122.33849999999999625" }
2019-06-24T12:23:59 33258174 7fa124... logstats { "device_id" : 1000, "temperature" : "0.00000000000000000", "humidity" : "0.00000000000000000", "vin" : "0.39060000000000000", "pressure" : "1022.82100000000002638", "lat" : "47.61430000000000007", "lon" : "-122.33849999999999625" }
2019-06-24T12:22:44 33258025 0ec6aa... logstats { "device_id" : 1000, "temperature" : "0.00000000000000000", "humidity" : "0.00000000000000000", "vin" : "0.58589999999999998", "pressure" : "1022.80809999999996762", "lat" : "47.61430000000000007", "lon" : "-122.33849999999999625" }
2019-06-24T12:19:54 33257693 118867... logstats { "device_id" : 1000, "temperature" : "0.00000000000000000", "humidity" : "0.00000000000000000", "vin" : "0.58589999999999998", "pressure" : "1022.83150000000000546", "lat" : "47.61430000000000007", "lon" : "-122.33849999999999625" }
2019-06-24T12:11:19 33256652 ad06b9... logstats { "device_id" : 1000, "temperature" : "0.00000000000000000", "humidity" : "0.00000000000000000", "vin" : "0.78129999999999999", "pressure" : "1023.07370000000003074", "lat" : "47.61430000000000007", "lon" : "-122.33849999999999625" }
2019-06-24T12:02:48 33255639 e23248... logstats { "device_id" : 1000, "temperature" : "0.00000000000000000", "humidity" : "0.00000000000000000", "vin" : "0.58589999999999998", "pressure" : "1023.10640000000000782", "lat" : "47.61430000000000007", "lon" : "-122.33849999999999625" }
2019-06-24T12:01:31 33255484 072c02... logstats { "device_id" : 1000, "temperature" : "0.00000000000000000", "humidity" : "0.00000000000000000", "vin" : "0.97660000000000002", "pressure" : "1023.11300000000005639", "lat" : "47.61430000000000007", "lon" : "-122.33849999999999625" }
2019-06-24T11:58:53 33255160 d54680... logstats { "device_id" : 1000, "temperature" : "0.00000000000000000", "humidity" : "0.00000000000000000", "vin" : "1.17189999999999994", "pressure" : "1023.15890000000001692", "lat" : "47.61430000000000007", "lon" : "-122.33849999999999625" }
2019-06-24T11:50:27 33254152 eb2ee7... logstats { "device_id" : 1000, "temperature" : "0.00000000000000000", "humidity" : "0.00000000000000000", "vin" : "0.78129999999999999", "pressure" : "1023.11429999999995744", "lat" : "47.61430000000000007", "lon" : "-122.33849999999999625" }
2019-06-24T11:49:13 33254004 0c20fa... logstats { "device_id" : 1000, "temperature" : "0.00000000000000000", "humidity" : "0.00000000000000000", "vin" : "0.78129999999999999", "pressure" : "1023.09960000000000946", "lat" : "47.61430000000000007", "lon" : "-122.33849999999999625" }
2019-06-24T11:48:00 33253856 913ea0... logstats { "device_id" : 1000, "temperature" : "0.00000000000000000", "humidity" : "0.00000000000000000", "vin" : "0.58589999999999998", "pressure" : "1023.30470000000002528", "lat" : "47.61430000000000007", "lon" : "-122.33849999999999625" }
2019-06-24T11:45:16 33253527 6ce0db... logstats { "device_id" : 1000, "temperature" : "0.00000000000000000", "humidity" : "0.00000000000000000", "vin" : "0.58589999999999998", "pressure" : "1023.30200000000002092", "lat" : "47.61430000000000007", "lon" : "-122.33849999999999625" }
2019-06-24T11:42:21 33253177 7edc53... logstats { "device_id" : 1000, "temperature" : "0.00000000000000000", "humidity" : "0.00000000000000000", "vin" : "0.78129999999999999", "pressure" : "1023.32129999999995107", "lat" : "47.61430000000000007", "lon" : "-122.33849999999999625" }
2019-06-24T11:41:02 33253030 eb506f... logstats { "device_id" : 1000, "temperature" : "0.00000000000000000", "humidity" : "0.00000000000000000", "vin" : "0.58589999999999998", "pressure" : "1023.32979999999997744", "lat" : "47.61430000000000007", "lon" : "-122.33849999999999625" }
2019-06-24T11:39:47 33252871 d91376... logstats { "device_id" : 1000, "temperature" : "0.00000000000000000", "humidity" : "0.00000000000000000", "vin" : "0.00000000000000000", "pressure" : "1023.36109999999996489", "lat" : "47.61430000000000007", "lon" : "-122.33849999999999625" }
2019-06-24T11:29:51 33251678 ea85d6... logstats { "device_id" : 1000, "temperature" : "0.00000000000000000", "humidity" : "0.00000000000000000", "vin" : "0.97660000000000002", "pressure" : "1023.48220000000003438", "lat" : "47.61430000000000007", "lon" : "-122.33849999999999625" }
2019-06-24T11:15:42 33249986 4aa8bc... logstats { "device_id" : 1000, "temperature" : "0.00000000000000000", "humidity" : "0.00000000000000000", "vin" : "0.58589999999999998", "pressure" : "1023.58180000000004384", "lat" : "47.61430000000000007", "lon" : "-122.33849999999999625" }
2019-06-24T11:14:24 33249831 cf597d... logstats { "device_id" : 1000, "temperature" : "0.00000000000000000", "humidity" : "0.00000000000000000", "vin" : "0.58589999999999998", "pressure" : "1023.55909999999994398", "lat" : "47.61430000000000007", "lon" : "-122.33849999999999625" }
2019-06-24T11:11:37 33249490 6f586f... logstats { "device_id" : 1000, "temperature" : "0.00000000000000000", "humidity" : "0.00000000000000000", "vin" : "0.78129999999999999", "pressure" : "1023.53369999999995343", "lat" : "47.61430000000000007", "lon" : "-122.33849999999999625" }
2019-06-24T10:58:50 33247966 96a9af... logstats { "device_id" : 1000, "temperature" : "0.00000000000000000", "humidity" : "0.00000000000000000", "vin" : "0.97660000000000002", "pressure" : "1023.60209999999995034", "lat" : "47.61430000000000007", "lon" : "-122.33849999999999625" }
2019-06-24T10:57:35 33247807 ed6b75... logstats { "device_id" : 1000, "temperature" : "0.00000000000000000", "humidity" : "0.00000000000000000", "vin" : "0.78129999999999999", "pressure" : "1023.62109999999995580", "lat" : "47.61430000000000007", "lon" : "-122.33849999999999625" }
2019-06-24T10:56:16 33247657 04a759... logstats { "device_id" : 1000, "temperature" : "0.00000000000000000", "humidity" : "0.00000000000000000", "vin" : "0.78129999999999999", "pressure" : "1023.63670000000001892", "lat" : "47.61430000000000007", "lon" : "-122.33849999999999625" }
2019-06-24T10:53:34 33247325 2ede54... logstats { "device_id" : 1000, "temperature" : "0.00000000000000000", "humidity" : "0.00000000000000000", "vin" : "0.78129999999999999", "pressure" : "1023.69650000000001455", "lat" : "47.61430000000000007", "lon" : "-122.33849999999999625" }
2019-06-24T10:52:21 33247179 f64eaf... logstats { "device_id" : 1000, "temperature" : "0.00000000000000000", "humidity" : "0.00000000000000000", "vin" : "0.78129999999999999", "pressure" : "1023.69119999999998072", "lat" : "47.61430000000000007", "lon" : "-122.33849999999999625" }
2019-06-24T10:44:55 33246288 98c65e... logstats { "device_id" : 1000, "temperature" : "0.00000000000000000", "humidity" : "0.00000000000000000", "vin" : "0.78129999999999999", "pressure" : "1023.74440000000004147", "lat" : "47.61430000000000007", "lon" : "-122.33849999999999625" }
2019-06-24T10:42:04 33245949 26f61e... logstats { "device_id" : 1000, "temperature" : "0.00000000000000000", "humidity" : "0.00000000000000000", "vin" : "1.17189999999999994", "pressure" : "1023.70090000000004693", "lat" : "47.61430000000000007", "lon" : "-122.33849999999999625" }
2019-06-24T10:30:55 33244606 dac4a9... logstats { "device_id" : 1000, "temperature" : "0.00000000000000000", "humidity" : "0.00000000000000000", "vin" : "0.78129999999999999", "pressure" : "1023.69090000000005602", "lat" : "47.61430000000000007", "lon" : "-122.33849999999999625" }
2019-06-24T10:26:38 33244099 62072b... logstats { "device_id" : 1000, "temperature" : "0.00000000000000000", "humidity" : "0.00000000000000000", "vin" : "0.58589999999999998", "pressure" : "1023.69780000000002929", "lat" : "47.61430000000000007", "lon" : "-122.33849999999999625" }
2019-06-24T10:25:23 33243945 879f2b... logstats { "device_id" : 1000, "temperature" : "0.00000000000000000", "humidity" : "0.00000000000000000", "vin" : "0.97660000000000002", "pressure" : "1023.73460000000000036", "lat" : "47.61430000000000007", "lon" : "-122.33849999999999625" }
2019-06-24T10:22:37 33243620 48da1d... logstats { "device_id" : 1000, "temperature" : "0.00000000000000000", "humidity" : "0.00000000000000000", "vin" : "0.58589999999999998", "pressure" : "1023.63570000000004256", "lat" : "47.61430000000000007", "lon" : "-122.33849999999999625" }
2019-06-24T10:19:55 33243296 6ed8e3... logstats { "device_id" : 1000, "temperature" : "0.00000000000000000", "humidity" : "0.00000000000000000", "vin" : "0.78129999999999999", "pressure" : "1023.62770000000000437", "lat" : "47.61430000000000007", "lon" : "-122.33849999999999625" }
2019-06-24T10:17:17 33242974 f0dbae... logstats { "device_id" : 1000, "temperature" : "0.00000000000000000", "humidity" : "0.00000000000000000", "vin" : "0.78129999999999999", "pressure" : "1023.55619999999998981", "lat" : "47.61430000000000007", "lon" : "-122.33849999999999625" }
2019-06-24T10:16:03 33242826 fb9c27... logstats { "device_id" : 1000, "temperature" : "0.00000000000000000", "humidity" : "0.00000000000000000", "vin" : "0.97660000000000002", "pressure" : "1023.71920000000000073", "lat" : "47.61430000000000007", "lon" : "-122.33849999999999625" }
2019-06-24T10:10:40 33242178 97eb34... logstats { "device_id" : 1000, "temperature" : "0.00000000000000000", "humidity" : "0.00000000000000000", "vin" : "0.97660000000000002", "pressure" : "1023.69479999999998654", "lat" : "47.61430000000000007", "lon" : "-122.33849999999999625" }
2019-06-24T10:03:33 33241326 e38605... logstats { "device_id" : 1000, "temperature" : "0.00000000000000000", "humidity" : "0.00000000000000000", "vin" : "0.58589999999999998", "pressure" : "1023.72050000000001546", "lat" : "47.61430000000000007", "lon" : "-122.33849999999999625" }
2019-06-24T10:00:54 33241010 d19d75... logstats { "device_id" : 1000, "temperature" : "0.00000000000000000", "humidity" : "0.00000000000000000", "vin" : "0.78129999999999999", "pressure" : "1023.70799999999996999", "lat" : "47.61430000000000007", "lon" : "-122.33849999999999625" }
2019-06-24T09:55:20 33240341 9e2f4f... logstats { "device_id" : 1000, "temperature" : "0.00000000000000000", "humidity" : "0.00000000000000000", "vin" : "0.97660000000000002", "pressure" : "1023.73140000000000782", "lat" : "47.61430000000000007", "lon" : "-122.33849999999999625" }
2019-06-24T09:48:28 33239525 eecbd4... logstats { "device_id" : 1000, "temperature" : "0.00000000000000000", "humidity" : "0.00000000000000000", "vin" : "0.97660000000000002", "pressure" : "1023.68209999999999127", "lat" : "47.61430000000000007", "lon" : "-122.33849999999999625" }
2019-06-24T09:44:25 33239054 6f52fa... logstats { "device_id" : 1000, "temperature" : "0.00000000000000000", "humidity" : "0.00000000000000000", "vin" : "0.58589999999999998", "pressure" : "1023.69870000000003074", "lat" : "47.61430000000000007", "lon" : "-122.33849999999999625" }
2019-06-24T09:43:12 33238918 aa1e3d... logstats { "device_id" : 1000, "temperature" : "0.00000000000000000", "humidity" : "0.00000000000000000", "vin" : "0.58589999999999998", "pressure" : "1023.68359999999995580", "lat" : "47.61430000000000007", "lon" : "-122.33849999999999625" }
2019-06-24T09:41:55 33238773 aa1769... logstats { "device_id" : 1000, "temperature" : "0.00000000000000000", "humidity" : "0.00000000000000000", "vin" : "1.17189999999999994", "pressure" : "1023.66849999999999454", "lat" : "47.61430000000000007", "lon" : "-122.33849999999999625" }
2019-06-24T09:39:01 33238438 ab1588... logstats { "device_id" : 1000, "temperature" : "0.00000000000000000", "humidity" : "0.00000000000000000", "vin" : "1.17189999999999994", "pressure" : "1023.69380000000001019", "lat" : "47.61430000000000007", "lon" : "-122.33849999999999625" }
2019-06-24T09:36:20 33238132 c8d6e0... logstats { "device_id" : 1000, "temperature" : "0.00000000000000000", "humidity" : "0.00000000000000000", "vin" : "0.97660000000000002", "pressure" : "1023.66060000000004493", "lat" : "47.61430000000000007", "lon" : "-122.33849999999999625" }
2019-06-24T09:33:33 33237812 a9dba5... logstats { "device_id" : 1000, "temperature" : "0.00000000000000000", "humidity" : "0.00000000000000000", "vin" : "0.97660000000000002", "pressure" : "1023.66920000000004620", "lat" : "47.61430000000000007", "lon" : "-122.33849999999999625" }
2019-06-24T09:29:23 33237340 2001d8... logstats { "device_id" : 1000, "temperature" : "0.00000000000000000", "humidity" : "0.00000000000000000", "vin" : "0.78129999999999999", "pressure" : "1023.73929999999995744", "lat" : "47.61430000000000007", "lon" : "-122.33849999999999625" }
2019-06-24T09:24:58 33236837 97ef40... logstats { "device_id" : 1000, "temperature" : "0.00000000000000000", "humidity" : "0.00000000000000000", "vin" : "0.58589999999999998", "pressure" : "1023.74509999999997945", "lat" : "47.61430000000000007", "lon" : "-122.33849999999999625" }
2019-06-24T09:20:44 33236343 0785de... logstats { "device_id" : 1000, "temperature" : "0.00000000000000000", "humidity" : "0.00000000000000000", "vin" : "0.58589999999999998", "pressure" : "1023.61890000000005330", "lat" : "47.61430000000000007", "lon" : "-122.33849999999999625" }
2019-06-24T08:57:37 33233701 5de7ea... logstats { "device_id" : 1000, "temperature" : "0.00000000000000000", "humidity" : "0.00000000000000000", "vin" : "0.78129999999999999", "pressure" : "1023.91110000000003311", "lat" : "47.61430000000000007", "lon" : "-122.33849999999999625" }
2019-06-24T08:55:03 33233403 404558... logstats { "device_id" : 1000, "temperature" : "0.00000000000000000", "humidity" : "0.00000000000000000", "vin" : "0.78129999999999999", "pressure" : "1023.91089999999996962", "lat" : "47.61430000000000007", "lon" : "-122.33849999999999625" }
2019-06-24T08:53:46 33233270 9b0149... logstats { "device_id" : 1000, "temperature" : "0.00000000000000000", "humidity" : "0.00000000000000000", "vin" : "1.17189999999999994", "pressure" : "1023.95969999999999800", "lat" : "47.61430000000000007", "lon" : "-122.33849999999999625" }
2019-06-24T08:49:53 33232828 d021ad... logstats { "device_id" : 1000, "temperature" : "0.00000000000000000", "humidity" : "0.00000000000000000", "vin" : "1.17189999999999994", "pressure" : "1023.98879999999996926", "lat" : "47.61430000000000007", "lon" : "-122.33849999999999625" }
2019-06-24T08:48:37 33232678 877fe9... logstats { "device_id" : 1000, "temperature" : "0.00000000000000000", "humidity" : "0.00000000000000000", "vin" : "0.78129999999999999", "pressure" : "1024.00729999999998654", "lat" : "47.61430000000000007", "lon" : "-122.33849999999999625" }
2019-06-24T08:47:24 33232534 3fece6... logstats { "device_id" : 1000, "temperature" : "0.00000000000000000", "humidity" : "0.00000000000000000", "vin" : "0.58589999999999998", "pressure" : "1024.00540000000000873", "lat" : "47.61430000000000007", "lon" : "-122.33849999999999625" }
2019-06-24T08:43:18 33232076 3aa1a1... logstats { "device_id" : 1000, "temperature" : "0.00000000000000000", "humidity" : "0.00000000000000000", "vin" : "1.17189999999999994", "pressure" : "1024.02659999999991669", "lat" : "47.61430000000000007", "lon" : "-122.33849999999999625" }
2019-06-24T08:37:43 33231434 e57df9... logstats { "device_id" : 1000, "temperature" : "0.00000000000000000", "humidity" : "0.00000000000000000", "vin" : "0.78129999999999999", "pressure" : "1024.07539999999994507", "lat" : "47.61430000000000007", "lon" : "-122.33849999999999625" }
2019-06-24T08:31:58 33230774 32bb4d... logstats { "device_id" : 1000, "temperature" : "0.00000000000000000", "humidity" : "0.00000000000000000", "vin" : "0.97660000000000002", "pressure" : "1024.05179999999995744", "lat" : "47.61430000000000007", "lon" : "-122.33849999999999625" }
2019-06-24T08:30:44 33230632 75db62... logstats { "device_id" : 1000, "temperature" : "0.00000000000000000", "humidity" : "0.00000000000000000", "vin" : "0.97660000000000002", "pressure" : "1024.09300000000007458", "lat" : "47.61430000000000007", "lon" : "-122.33849999999999625" }
2019-06-24T08:29:27 33230497 ba6481... logstats { "device_id" : 1000, "temperature" : "0.00000000000000000", "humidity" : "0.00000000000000000", "vin" : "0.58589999999999998", "pressure" : "1024.09909999999990760", "lat" : "47.61430000000000007", "lon" : "-122.33849999999999625" }
2019-06-24T08:26:38 33230171 c4fae1... logstats { "device_id" : 1000, "temperature" : "0.00000000000000000", "humidity" : "0.00000000000000000", "vin" : "0.97660000000000002", "pressure" : "1024.07690000000002328", "lat" : "47.61430000000000007", "lon" : "-122.33849999999999625" }
2019-06-24T08:25:26 33230029 9946b0... logstats { "device_id" : 1000, "temperature" : "0.00000000000000000", "humidity" : "0.00000000000000000", "vin" : "0.39060000000000000", "pressure" : "1024.07809999999994943", "lat" : "47.61430000000000007", "lon" : "-122.33849999999999625" }
2019-06-24T08:21:12 33229548 ca4b30... logstats { "device_id" : 1000, "temperature" : "0.00000000000000000", "humidity" : "0.00000000000000000", "vin" : "0.97660000000000002", "pressure" : "1024.09719999999992979", "lat" : "47.61430000000000007", "lon" : "-122.33849999999999625" }
2019-06-24T08:08:33 33228107 143955... logstats { "device_id" : 1000, "temperature" : "0.00000000000000000", "humidity" : "0.00000000000000000", "vin" : "2.34379999999999988", "pressure" : "1024.02099999999995816", "lat" : "47.61430000000000007", "lon" : "-122.33849999999999625" }
2019-06-24T08:04:27 33227634 c462a1... logstats { "device_id" : 1000, "temperature" : "0.00000000000000000", "humidity" : "0.00000000000000000", "vin" : "1.95320000000000005", "pressure" : "1024.07590000000004693", "lat" : "47.61430000000000007", "lon" : "-122.33849999999999625" }
2019-06-24T07:57:12 33226800 c2fdf6... logstats { "device_id" : 1000, "temperature" : "0.00000000000000000", "humidity" : "0.00000000000000000", "vin" : "0.97660000000000002", "pressure" : "1024.04790000000002692", "lat" : "47.61430000000000007", "lon" : "-122.33849999999999625" }
2019-06-24T07:55:53 33226664 c61d9b... logstats { "device_id" : 1000, "temperature" : "0.00000000000000000", "humidity" : "0.00000000000000000", "vin" : "1.17189999999999994", "pressure" : "1024.02659999999991669", "lat" : "47.61430000000000007", "lon" : "-122.33849999999999625" }
2019-06-24T07:54:35 33226508 794e52... logstats { "device_id" : 1000, "temperature" : "0.00000000000000000", "humidity" : "0.00000000000000000", "vin" : "0.78129999999999999", "pressure" : "1024.03809999999998581", "lat" : "47.61430000000000007", "lon" : "-122.33849999999999625" }
2019-06-24T07:51:40 33226174 07456c... logstats { "device_id" : 1000, "temperature" : "0.00000000000000000", "humidity" : "0.00000000000000000", "vin" : "0.78129999999999999", "pressure" : "1024.08349999999995816", "lat" : "47.61430000000000007", "lon" : "-122.33849999999999625" }